Flag Weather past 2 weeks in Gustavia, Saint Barthélemy, France

Now
81 °F

Passing clouds.


Feels Like: 85 °F
Forecast: 80 / 83 °F
Wind: 14 mph from East

Location: Juliana Airport - Saint Maarten

Current Time: Nov 26, 2014 at 6:25:17 AM

Latest Report: Nov 26, 2014 at 6:00 AM


Visibility: N/A

Pressure: 29.98 "Hg

Humidity: 74%

Dew point: 72 °F

Location of GustaviaLocation

Historic Weather in Gustavia — Graph

°F

Gustavia temperature yesterday

Maximum temperature yesterday: 84 °F (at 11:00 AM)
Minimum temperature yesterday: 79 °F (at 6:00 AM)
Average temperature yesterday: 82 °F

Past Weeks' High & Low Weather Summary

 TemperatureHumidityPressure
High86 °F (Nov 11, 11:00 AM)94% (Nov 22, 1:00 AM)30.09 "Hg (Nov 22, 1:00 AM)
Low75 °F (Nov 22, 1:00 AM)20% (Nov 25, 5:00 AM)29.86 "Hg (Nov 11, 3:00 PM)
Average82 °F73%29.98 "Hg
* Reported Nov 11 5:00 AM — Nov 26 5:00 AM, Gustavia, Weather by CustomWeather, © 2014

Note: Actual official high and low records may vary slightly from our data, if they occured in-between our weather recording intervals... More about our weather records

Advertising

Gustavia weather history for previous 24 hours

 ConditionsComfort  
Time TempWeatherWind HumidityBarometerVisibility
5:00 AM
Nov 26
81 °FPassing clouds.12 mph70%29.95 "HgN/A
4:00 AM81 °FPassing clouds.15 mph70%29.95 "HgN/A
3:00 AM81 °FPassing clouds.14 mph74%29.95 "HgN/A
2:00 AM81 °FPassing clouds.16 mph74%29.95 "HgN/A
1:00 AM81 °FPassing clouds.13 mph74%29.98 "HgN/A
12:00 AM81 °FScattered showers. Passing clouds.18 mph79%29.98 "HgN/A
11:00 PM
Nov 25
81 °FPassing clouds.17 mph74%30.01 "HgN/A
10:00 PM81 °FPassing clouds.18 mph74%30.01 "HgN/A
9:00 PM81 °FPassing clouds.17 mph74%30.01 "HgN/A
8:00 PM81 °FPassing clouds.17 mph70%30.01 "HgN/A
7:00 PM81 °FPassing clouds.17 mph74%30.01 "HgN/A
6:00 PM81 °FPassing clouds.18 mph74%30.01 "HgN/A
5:00 PM82 °FScattered clouds.16 mph70%29.98 "HgN/A
4:00 PM84 °FScattered clouds.14 mph66%29.98 "HgN/A
3:00 PM84 °FPartly sunny.17 mph66%29.98 "HgN/A
2:00 PM84 °FScattered clouds.17 mph66%30.01 "HgN/A
1:00 PM84 °FScattered clouds.14 mph66%30.01 "HgN/A
12:00 PM84 °FScattered showers. Partly sunny.17 mph70%30.04 "HgN/A
11:00 AM84 °FScattered showers. Partly sunny.14 mph74%30.07 "HgN/A
10:00 AM82 °FSprinkles. Partly sunny.16 mph74%30.07 "HgN/A
9:00 AM81 °FScattered showers. Scattered clouds.17 mph79%30.07 "HgN/A
8:00 AM81 °FScattered showers. Partly sunny.16 mph79%30.04 "HgN/A
7:00 AM81 °FScattered clouds.14 mph79%30.04 "HgN/A
6:00 AM79 °FRain showers. Passing clouds.10 mph79%30.01 "Hg2 mi
Weather by CustomWeather, © 2014

See weather overviewHow to use our weather pages